EHI
20 35 47 44 37 33 32 35 38 41 46 48 44 38 33 30 30 32 33 30 26 22 17 11 7 4 4 3 3 3 1 0 1 1 1 0 0 0 1 1 1 4 7
23 36 47 46 41 36 33 34 38 42 47 50 49 44 39 34 32 32 31 29 26 22 17 11 7 5 4 3 4 4 2 1 0 0 0 0 0 0 0 1 2 5 7
26 35 44 47 45 39 34 34 39 44 48 51 52 50 44 38 34 31 29 25 23 20 15 9 7 5 4 4 5 5 3 1 1 0 0 0 0 1 1 1 2 4 4
23 30 39 46 46 41 37 38 41 45 47 49 51 51 47 39 32 28 26 23 20 18 15 11 7 5 5 4 5 5 4 3 3 1 0 0 2 3 3 1 1 2 2
18 25 34 42 44 41 39 41 44 44 44 45 46 48 46 40 32 28 26 23 19 16 16 14 10 7 6 5 5 5 6 6 4 1 0 0 4 7 5 1 1 2 3
16 22 31 38 41 41 39 41 44 43 42 42 42 44 44 41 35 30 26 22 17 14 14 13 11 8 6 5 5 6 7 6 3 0 0 1 6 12 8 2 1 3 4
19 22 28 34 37 38 37 39 41 42 41 41 41 42 42 40 35 30 26 21 16 12 10 10 9 7 6 6 6 6 6 4 1 0 0 2 8 13 9 4 3 4 4
22 23 26 30 32 33 33 35 38 41 41 41 41 42 41 38 33 28 23 19 16 13 11 9 9 8 6 6 6 5 4 2 1 0 1 3 8 10 9 5 5 4 4
22 23 25 27 27 28 28 29 33 37 40 40 39 38 37 34 30 25 22 19 16 15 13 12 11 8 6 5 4 3 1 1 0 0 1 3 6 8 6 5 4 4 3
22 23 24 25 25 24 23 25 28 32 36 37 35 32 30 28 25 22 20 20 18 16 14 13 11 8 4 3 2 2 1 0 0 1 2 4 7 7 5 4 4 3 2
23 23 23 23 23 21 21 22 24 25 26 27 26 24 21 18 17 15 17 21 20 16 13 11 10 7 3 1 1 2 2 1 1 2 5 9 11 8 5 4 3 2 1
22 22 21 20 20 19 19 20 20 18 17 16 17 19 17 13 11 11 16 21 19 14 11 11 9 7 3 1 0 2 3 3 3 4 8 14 13 7 3 3 3 2 1
19 19 17 18 19 18 17 18 19 18 16 16 20 22 20 17 14 14 18 19 15 11 11 12 11 7 3 1 0 2 3 5 6 5 8 13 11 4 1 2 3 2 1
17 16 15 17 20 21 20 20 22 22 21 24 29 30 27 23 20 19 20 17 14 13 13 13 12 9 7 4 2 2 3 5 5 5 6 9 6 2 0 1 2 2 1
17 16 16 19 24 24 25 25 23 22 23 27 32 32 28 26 23 20 18 15 14 14 14 13 12 12 10 7 5 4 3 3 3 3 4 5 4 2 1 1 1 1 1
19 18 18 21 23 24 25 26 22 19 21 25 28 27 27 26 24 19 15 14 14 13 14 14 13 13 11 9 6 4 3 2 2 2 2 2 4 3 3 3 3 2 1
18 18 19 19 19 20 22 22 20 18 19 21 22 23 23 24 24 21 16 14 14 15 17 16 14 12 12 10 6 4 4 4 3 2 2 2 3 3 3 4 5 3 2
15 17 19 17 17 19 19 19 18 18 17 16 17 19 19 20 21 21 17 14 15 16 17 16 13 11 11 11 7 5 6 6 4 3 3 3 3 3 4 4 4 4 3
14 16 17 16 16 19 20 19 18 17 15 13 12 13 15 15 16 16 13 12 13 15 14 13 12 10 9 9 7 5 6 6 5 4 3 3 4 4 4 4 4 4 4
15 16 16 15 16 20 22 21 18 14 12 11 9 9 10 11 11 10 10 11 12 14 13 12 12 10 8 8 6 4 4 5 5 4 3 3 3 4 3 3 5 5 4
16 15 15 15 17 20 21 19 16 11 9 9 7 6 7 7 6 6 8 11 14 14 13 12 12 10 8 8 7 5 4 4 4 3 3 3 3 3 2 3 4 5 5
14 13 13 15 17 17 17 17 14 10 8 7 6 5 5 4 4 4 5 10 13 15 13 13 14 11 8 8 9 7 6 5 3 2 3 4 2 1 1 1 2 3 4
12 11 12 14 15 13 14 13 11 8 6 5 5 4 4 4 5 5 6 8 11 13 13 14 15 14 10 8 9 8 6 5 3 3 3 3 2 0 0 0 0 1 2
10 10 10 12 12 10 10 9 8 6 3 2 2 2 3 4 6 7 7 8 9 10 11 12 12 14 11 8 7 6 4 4 4 4 3 3 2 1 1 1 1 2 4
6 6 7 9 10 7 6 5 6 5 2 0 1 1 1 4 6 6 7 9 9 9 9 9 10 11 10 8 6 5 2 2 3 4 3 2 1 1 2 3 4 6 8
3 4 5 7 8 6 4 4 5 4 2 1 1 1 1 2 4 5 7 10 10 9 8 8 8 8 8 9 7 5 2 1 2 3 3 2 1 0 2 5 6 7 9
Wind_Speed
8 13 16 13 12 11 11 11 11 12 13 13 13 14 13 13 13 12 12 11 11 10 9 8 8 7 6 6 6 6 5 5 5 5 5 6 5 5 5 6 7 7 8
9 14 16 13 12 11 11 11 12 12 12 12 13 13 13 13 12 12 11 11 10 9 9 8 7 7 6 6 6 5 5 5 5 5 6 8 7 6 5 5 5 2 8
10 14 16 13 12 11 11 11 12 12 12 12 12 13 13 13 12 11 11 10 10 9 9 8 7 7 6 6 6 5 5 5 5 5 7 9 8 8 6 5 4 3 6
10 13 14 14 12 11 11 10 11 12 12 12 12 12 12 12 11 11 10 10 9 9 9 8 7 7 6 6 5 5 5 5 5 7 9 6 5 9 6 6 6 6 6
10 12 13 14 12 11 11 10 10 12 12 11 11 11 11 11 11 10 10 10 9 8 8 8 8 7 6 6 6 6 6 6 6 10 7 5 4 8 6 6 7 7 7
9 10 13 12 12 11 10 10 10 10 11 11 11 10 10 10 10 10 10 9 9 9 8 8 8 7 7 7 7 7 7 7 9 10 6 6 5 8 7 7 8 8 8
8 8 13 11 10 10 10 9 9 9 9 10 10 10 10 9 9 9 10 9 9 9 9 9 8 8 7 7 7 7 7 8 11 8 6 7 4 6 7 8 9 9 9
7 8 11 11 10 9 9 8 7 7 7 8 9 9 8 8 8 8 8 8 9 8 8 8 8 8 8 8 8 8 8 10 10 8 7 7 3 4 7 8 8 9 9
6 6 7 9 10 10 8 7 6 6 6 6 7 7 8 7 7 8 8 8 8 8 9 9 8 8 9 9 9 9 9 10 11 6 7 5 5 5 7 8 9 10 10
5 5 5 5 6 8 9 9 7 6 6 6 7 7 8 8 9 9 9 8 8 8 9 9 8 8 9 9 9 9 10 10 12 9 6 4 6 6 8 8 9 10 10
4 4 3 4 4 4 5 7 8 8 7 6 7 7 8 8 8 8 8 6 7 7 8 8 8 8 9 10 10 10 10 8 9 7 5 3 4 7 9 9 9 10 11
4 3 3 3 3 3 2 4 5 5 5 5 4 6 6 5 5 5 4 6 7 8 9 9 9 10 11 7 9 11 7 10 8 6 4 5 6 8 10 10 11 11 11
2 2 2 3 2 2 2 2 2 3 3 5 4 5 4 4 4 4 3 5 7 8 7 7 9 7 7 6 6 7 8 8 5 5 5 8 8 10 11 11 12 12 12
1 2 1 2 2 2 2 2 2 3 2 3 3 5 4 3 3 3 3 3 3 3 4 5 4 6 7 7 8 8 8 6 5 5 4 7 9 11 12 12 12 13 13
2 0 1 2 2 2 2 2 2 2 2 2 3 3 4 3 3 3 3 3 4 3 4 5 5 5 6 7 8 8 8 8 8 8 4 7 10 11 13 13 13 13 13
2 1 1 2 2 2 2 2 1 2 2 2 2 3 4 3 3 3 3 3 4 4 4 4 5 5 5 6 8 8 8 8 7 8 8 7 11 11 11 12 12 12 13
4 2 1 2 2 1 2 2 1 1 2 2 2 3 4 4 3 3 3 4 3 4 4 4 5 5 5 6 7 8 7 8 7 8 8 7 7 10 11 10 10 11 12
4 3 2 1 0 0 1 1 1 1 2 2 2 2 3 4 4 4 4 4 4 4 4 4 5 4 5 6 6 6 6 6 7 7 7 7 6 6 9 11 10 11 12
4 3 3 3 2 1 0 0 1 1 2 2 2 2 3 4 4 4 4 4 4 4 4 4 3 4 5 5 6 5 6 5 6 7 7 8 7 7 7 7 10 11 12
4 4 4 4 4 3 1 1 1 2 2 2 2 1 2 2 3 4 4 4 5 3 4 4 4 4 5 5 6 5 5 6 5 6 7 7 7 8 9 8 7 8 12
5 5 5 5 4 3 2 1 1 2 2 2 1 2 2 3 3 4 4 3 4 4 4 4 4 5 4 4 4 5 5 7 6 5 6 6 7 8 8 8 7 6 6
5 4 4 4 4 4 3 2 1 2 2 2 2 2 3 3 3 4 4 4 4 4 4 4 4 4 3 2 3 4 4 4 5 6 5 6 6 6 8 9 8 7 7
5 4 4 4 4 4 3 2 1 1 2 1 2 2 3 3 3 4 4 5 4 5 3 4 5 5 4 4 3 4 4 4 3 3 5 5 5 5 6 6 8 8 8
4 4 3 3 3 3 3 3 3 3 3 3 3 2 3 3 3 4 5 5 5 4 4 4 3 4 5 4 4 4 4 4 4 4 4 4 5 6 6 6 7 7 8
4 4 3 3 3 3 3 3 3 3 3 3 3 3 4 3 3 4 4 4 4 4 4 4 3 4 4 4 4 4 5 4 6 5 6 5 5 5 5 6 6 6 6
4 3 3 3 3 3 4 4 4 4 5 4 4 4 3 2 3 3 4 3 4 3 3 3 3 4 3 4 4 4 4 4 4 5 6 6 5 5 5 5 5 5 5
Wind_Direction
152 145 148 157 156 157 155 154 153 154 154 155 157 157 158 159 159 161 162 161 161 162 162 162 163 166 168 169 173 176 178 177 174 173 179 180 180 182 186 187 200 189 137
147 145 149 156 156 156 158 156 154 153 154 155 158 159 161 162 163 164 165 166 168 170 170 170 173 176 178 180 181 181 183 184 184 185 190 192 188 190 189 193 231 111 140
146 146 154 156 156 157 158 159 157 155 155 158 160 161 163 165 166 168 169 170 173 176 178 178 182 183 186 188 188 191 193 194 193 200 218 219 180 177 190 198 198 174 166
147 151 157 151 157 157 158 158 159 159 159 160 160 164 166 168 169 172 174 175 177 182 184 185 189 191 193 196 196 197 199 202 205 220 225 219 195 156 185 201 201 196 188
147 151 143 153 157 158 159 159 159 162 162 163 164 166 169 172 174 177 181 182 184 187 191 193 196 199 200 203 204 205 208 211 216 234 235 228 215 144 181 205 209 207 201
144 149 141 156 159 161 163 164 166 165 166 167 168 170 173 177 180 183 187 190 194 197 200 202 203 206 207 208 210 211 215 219 229 230 223 230 217 150 186 209 216 217 210
138 142 141 153 159 162 165 168 168 167 169 172 172 175 179 183 187 191 194 197 201 207 211 211 209 210 212 215 216 217 219 226 245 242 228 229 214 150 198 215 220 219 216
132 138 137 153 160 163 167 170 168 169 172 176 178 179 182 187 193 196 200 203 205 210 217 218 216 215 217 220 221 223 225 237 240 241 236 236 151 168 217 226 226 222 218
124 130 142 160 165 169 169 172 171 171 175 179 183 183 185 191 196 203 208 213 215 216 217 218 220 222 223 224 227 228 229 237 256 240 236 235 150 198 226 231 231 226 222
123 125 139 160 166 177 175 169 173 176 180 185 192 196 197 200 203 208 214 212 220 224 223 221 220 225 229 231 232 234 235 237 245 241 233 205 159 212 232 236 235 231 227
124 132 147 161 165 189 183 161 180 184 182 193 198 198 214 218 213 208 216 197 219 226 226 222 222 226 232 228 230 234 236 240 238 245 239 164 182 227 239 241 241 239 232
140 151 159 172 168 190 187 174 198 202 186 210 212 210 222 229 235 239 181 201 221 229 227 222 226 226 233 232 217 221 236 240 244 237 222 168 212 238 244 245 244 243 239
153 166 176 184 185 196 189 201 206 211 199 212 218 228 235 237 233 239 223 208 221 227 229 215 221 229 232 236 242 231 241 248 246 246 221 180 216 241 247 248 246 244 243
149 181 195 193 191 210 212 215 222 222 210 217 215 232 236 240 242 242 240 244 236 234 242 241 239 235 240 240 242 244 242 245 249 249 232 190 220 240 247 249 247 244 243
14 216 197 215 196 206 215 240 235 249 236 222 233 231 241 243 245 240 243 248 250 242 236 246 250 245 245 243 244 243 247 247 250 255 245 202 220 239 246 250 250 246 244
1 324 220 215 208 201 212 233 262 269 269 261 234 234 242 252 249 249 243 239 246 248 252 252 257 253 250 251 249 244 247 250 249 255 261 233 211 224 240 248 250 248 245
2 346 271 222 219 224 240 246 255 268 269 272 260 241 237 243 243 244 251 246 248 250 249 250 254 252 249 246 244 242 243 247 250 251 256 262 244 216 222 235 246 248 245
16 12 352 319 260 228 281 308 307 287 273 277 275 256 241 242 239 237 243 248 249 250 247 249 253 255 253 252 247 248 246 242 245 247 250 249 257 256 221 215 234 244 244
16 18 18 5 0 348 15 327 314 305 281 274 273 278 262 240 240 245 248 256 250 251 255 258 252 262 261 258 254 245 247 242 242 243 245 249 250 255 258 218 219 233 239
22 21 22 21 16 358 1 10 313 294 279 277 270 289 297 260 247 255 251 255 257 251 254 260 261 256 266 267 265 262 253 249 245 242 244 242 244 249 250 256 240 227 226
23 25 26 20 15 357 341 323 311 301 304 299 298 314 288 281 265 256 264 253 255 252 258 260 258 253 256 266 266 263 252 241 243 242 244 249 244 246 247 248 251 251 231
21 20 22 19 11 356 355 335 318 308 303 303 305 290 278 279 275 260 264 263 257 259 253 259 258 264 259 248 268 270 262 241 231 235 244 246 255 253 248 242 246 243 248
15 14 15 12 1 353 342 316 306 254 257 275 292 278 279 279 269 274 265 266 268 262 262 261 255 252 258 244 244 266 274 275 291 234 246 257 262 266 262 257 247 245 241
8 11 15 6 2 354 332 330 313 305 304 306 300 305 296 280 272 261 264 261 263 267 267 263 261 259 258 257 240 247 263 286 281 282 256 257 262 265 269 268 260 248 243
3 2 3 5 4 355 338 325 301 293 292 290 292 290 287 283 276 272 265 265 259 261 263 268 267 259 257 263 262 258 255 250 252 267 281 275 263 264 262 261 261 260 254
359 355 355 359 354 338 326 323 309 299 293 295 294 290 281 283 280 278 270 269 262 263 256 260 266 254 266 269 270 265 262 264 261 265 271 275 276 276 272 265 256 255 255